Location: Newark
(26.8229°N, 81.7649°W)
Time: 22:52:21
(UTC+00:00)

Hubble Space Telescope - Pass Details

Date: 31 January 2020
Orbit: 536 x 540 km, 28.5° (Epoch: 24 February)

Event Time Altitude Azimuth Distance (km) Brightness Sun altitude
Exits shadow 10:10:24 37° 125° (SE) 827 2.1 -27.5°
Drops below altitude 10° 10:13:26 10° 88° (E) 1,777 4.4 -26.8°
Sets 10:15:46 0° 82° (E) 2,669 5.5 -26.3°
